Location: Poughquag
(41.6090°N, 73.6820°W)
Time: 07:30:57
(UTC-05:00)

Altair - Pass Details

Date: 07 December 2023
Orbit: 1501 x 1682 km, 47.2° (Epoch: 02 March)

Event Time Altitude Azimuth Distance (km) Brightness Sun altitude
Rises 07:07:41 0° 227° (SW) 4,866 10.0 -0.8°
Reaches altitude 10° 07:10:53 10° 224° (SW) 3,860 9.5 -0.3°
Maximum altitude 07:20:35 67° 145° (SE) 1,698 8.2 1.2°
Drops below altitude 10° 07:29:55 10° 65° (ENE) 3,729 10.0 2.7°
Sets 07:32:57 0° 63° (ENE) 4,693 10.5 3.2°
